Hourly Data Report for May 24, 2012

All times are specified in Local Standard Time (LST). Add 1 hour to adjust for Daylight Saving Time where and when it is observed.

HAMILTON A
ONTARIO

43°10'25.000" N
79°56'06.000" W
237.70 m
6153193
71263
YHM

Download Data

Hourly Data (May 2012)
Hourly Data Report for May 24, 2012
Temp Definition
°C
Dew Point Temp Definition
°C
Rel Hum Definition
%
Wind Dir Definition
10's deg

Wind Spd Definition
km/h
Visibility Definition
km
Stn Press Definition
kPa
Hmdx Definition


Wind Chill Definition


Weather Definition


TIME
00:00 Legend Double Dagger 14.8 13.7 93 5 11 10.0 98.61     LegendNANA
01:00 Legend Double Dagger 14.7 13.8 94 5 12 10.0 98.61     Mainly Clear
02:00 Legend Double Dagger 14.2 13.6 96 6 9 10.0 98.58     LegendNANA
03:00 Legend Double Dagger 13.9 13.4 97 5 13 10.0 98.59     LegendNANA
04:00 Legend Double Dagger 13.0 12.7 98 4 8 10.0 98.64     Mainly Clear
05:00 Legend Double Dagger 13.5 13.2 98 3 7 10.0 98.72     Fog
06:00 Legend Double Dagger 14.9 14.4 97 6 7 10.0 98.80     LegendNANA
07:00 Legend Double Dagger 17.6 16.1 91 10 6 10.0 98.84     Mostly Cloudy
08:00 Legend Double Dagger 20.6 17.5 82 17 9 10.0 98.83 26   LegendNANA
09:00 Legend Double Dagger 22.4 17.8 75 16 9 10.0 98.80 28   LegendNANA
10:00 Legend Double Dagger 23.7 17.8 69 15 10 10.0 98.75 30   Mainly Clear
11:00 Legend Double Dagger 24.8 17.7 64 19 13 10.0 98.73 31   LegendNANA
12:00 Legend Double Dagger 26.0 18.0 61 17 18 10.0 98.72 32   LegendNANA
13:00 Legend Double Dagger 25.7 17.0 58 13 23 10.0 98.68 31   Mostly Cloudy
14:00 Legend Double Dagger 27.3 17.4 54 17 17 10.0 98.65 33   LegendNANA
15:00 Legend Double Dagger 26.7 16.5 53 19 18 10.0 98.60 32   LegendNANA
16:00 Legend Double Dagger 26.6 16.1 52 16 13 10.0 98.56 31   Mostly Cloudy
17:00 Legend Double Dagger 24.0 17.1 65 6 8 10.0 98.53 29   LegendNANA
18:00 Legend Double Dagger 23.4 17.3 68 4 14 10.0 98.50 29   LegendNANA
19:00 Legend Double Dagger 21.1 17.0 77 4 10 10.0 98.48 26   Mainly Clear
20:00 Legend Double Dagger 19.7 16.6 82 7 8 10.0 98.47     LegendNANA
21:00 Legend Double Dagger 22.1 15.8 67 15 12 10.0 98.48 27   LegendNANA
22:00 Legend Double Dagger 22.3 15.0 63 15 14 10.0 98.49 26   Mainly Clear
23:00 Legend Double Dagger 21.1 14.8 67 16 14 10.0 98.53 25   LegendNANA

Notes on Data Quality.

Legend

  • E = Estimated
  • M = Missing
  • NA = Not Available
  • ‡ = Partner data that is not subject to review by the National Climate Archives
Date modified: